Change the Weather History Date:

Saturday, November 10, 2012

  Actual Average Record
Temperature  
Mean Temperature 48 °F 46 °F  
Max Temperature 64 °F 57 °F 76 °F (1975)
Min Temperature 31 °F 36 °F 18 °F (2003)
Degree Days  
Heating Degree Days 17 19  
Month to date heating degree days 225 174  
Since 1 July heating degree days 615 620  
Cooling Degree Days 0 0  
Month to date cooling degree days 0 0  
Year to date cooling degree days 1145 895  
Moisture  
Dew Point 33 °F    
Average Humidity 60    
Maximum Humidity 85    
Minimum Humidity 34    
Precipitation  
Precipitation 0.00 in 0.10 in 2.95 in (1932)
Month to date precipitation T 1.01  
Year to date precipitation 28.63 33.87  
Sea Level Pressure  
Sea Level Pressure 30.30 in    
Wind  
Wind Speed 1 mph (South)    
Max Wind Speed 9 mph    
Max Gust Speed 33 mph    
Visibility 9 miles    
Events      
T = Trace of Precipitation, MM = Missing Value Source: NWS Daily Summary

Daily Weather History Graph

Daily Weather History Graph

Search for Another Location

Airport or City:

Trip Planner

Search our weather history database for the weather conditions in past years. The results will help you decide how hot, cold, wet, or windy it might be!

Date:

Astronomy

Nov. 10, 2012 Rise Set
Actual Time 6:50 AM EST 5:00 PM EST
Civil Twilight 6:22 AM EST 5:29 PM EST
Nautical Twilight 5:49 AM EST 6:01 PM EST
Astronomical Twilight 5:18 AM EST 6:32 PM EST
Moon 2:54 AM EST (11/10) 2:45 PM EST (11/10)
Length of Visible Light 11h 07m
Length of Day
10h 10m
Waning Crescent, 14% of the Moon is Illuminated
Nov 10
Waning Crescent
Nov 13
New
Nov 20
First Quarter
Nov 28
Full
Dec 6
Last Quarter

Hourly Weather History & Observations

Time (EST) Temp. Windchill Dew Point Humidity Pressure Visibility Wind Dir Wind Speed Gust Speed Precip Events Conditions
12:53 AM 37.0 °F - 30.0 °F 76% 30.23 in 9.0 mi Calm Calm - N/A   Clear
1:53 AM 34.0 °F - 28.9 °F 82% 30.24 in 8.0 mi Calm Calm - N/A   Clear
2:53 AM 33.1 °F - 28.0 °F 82% 30.25 in 8.0 mi Calm Calm - N/A   Clear
3:53 AM 32.0 °F - 28.0 °F 85% 30.26 in 7.0 mi Calm Calm - N/A   Clear
4:53 AM 32.0 °F - 28.0 °F 85% 30.29 in 8.0 mi Calm Calm - N/A   Clear
5:53 AM 32.0 °F - 28.0 °F 85% 30.31 in 7.0 mi Calm Calm - N/A   Clear
6:53 AM 32.0 °F 27.5 °F 28.9 °F 88% 30.31 in 5.0 mi WSW 4.6 mph - N/A   Partly Cloudy
7:53 AM 35.1 °F - 30.9 °F 85% 30.34 in 7.0 mi Calm Calm - N/A   Clear
8:53 AM 42.1 °F - 34.0 °F 73% 30.35 in 7.0 mi Calm Calm - N/A   Overcast
9:53 AM 46.9 °F - 36.0 °F 66% 30.36 in 9.0 mi Calm Calm - N/A   Clear
10:53 AM 51.1 °F - 35.1 °F 54% 30.35 in 10.0 mi Calm Calm - N/A   Clear
11:53 AM 55.9 °F - 35.1 °F 45% 30.32 in 10.0 mi SW 4.6 mph - N/A   Clear
12:53 PM 60.1 °F - 35.1 °F 39% 30.29 in 10.0 mi South 4.6 mph - N/A   Clear
1:53 PM 63.0 °F - 35.1 °F 35% 30.27 in 10.0 mi SE 8.1 mph - N/A   Clear
2:53 PM 62.1 °F - 34.0 °F 35% 30.27 in 10.0 mi SSE 4.6 mph - N/A   Clear
3:53 PM 63.0 °F - 35.1 °F 35% 30.27 in 10.0 mi SSE 5.8 mph - N/A   Clear
4:53 PM 61.0 °F - 33.1 °F 35% 30.28 in 10.0 mi Calm Calm - N/A   Clear
5:53 PM 54.0 °F - 34.0 °F 47% 30.30 in 10.0 mi Calm Calm - N/A   Clear
6:53 PM 52.0 °F - 34.0 °F 50% 30.31 in 10.0 mi Calm Calm - N/A   Clear
7:53 PM 48.0 °F - 35.1 °F 61% 30.32 in 10.0 mi Calm Calm - N/A   Clear
8:53 PM 48.0 °F - 35.1 °F 61% 30.34 in 10.0 mi Calm Calm - N/A   Clear
9:53 PM 45.0 °F - 35.1 °F 68% 30.35 in 10.0 mi Calm Calm - N/A   Clear
11:53 PM 44.1 °F - 35.1 °F 71% 30.35 in 8.0 mi Calm Calm - N/A   Clear